Kuchera_Ratio
0.0 0.0 0.0 0.0 0.0 0.0 0.0 0.0 0.0 0.0 0.0 0.0 0.0 0.0 0.0 0.0 0.0 0.0 0.0 0.0 0.0 3.0 0.0 0.0 0.0 0.0 0.0 0.0 0.0 0.0 0.0 0.0 0.0 1.4 1.7 0.9 2.0 0.0 2.6 0.0 0.0 2.4 5.0 6.4 5.6 9.5 12.6 0.0 0.0 0.0 0.0 0.0 0.0 0.0
0.0 0.0 0.0 0.0 0.0 0.0 0.0 0.0 0.0 0.0 0.0 0.0 0.0 0.0 0.0 0.0 0.0 0.0 0.0 0.0 0.0 1.5 0.0 0.0 0.0 0.0 0.0 0.0 0.0 0.0 0.0 0.0 0.0 0.0 0.6 0.0 3.1 0.3 0.9 6.5 0.0 0.7 0.0 0.0 0.0 0.0 0.0 0.0 0.0 0.0 0.0 0.0 0.0 0.0
0.0 0.0 0.0 0.0 0.0 0.0 0.0 0.0 0.0 0.0 0.0 0.0 0.0 0.0 0.0 0.0 0.0 0.0 0.0 0.0 0.0 1.9 0.0 0.0 0.0 0.0 0.0 0.0 0.0 0.0 0.0 0.0 0.0 0.0 0.0 0.0 3.1 0.0 3.9 2.2 0.2 0.0 0.0 0.0 0.0 0.0 0.0 0.0 0.0 0.0 0.0 0.0 0.0 0.0
0.0 0.0 0.0 0.0 0.0 0.0 0.0 0.0 0.0 0.0 0.0 0.0 0.0 0.0 0.0 0.0 0.0 0.0 0.0 0.0 0.0 3.2 7.7 0.0 0.0 0.0 0.0 0.0 0.0 0.0 0.0 0.0 0.0 0.0 0.0 0.0 1.7 0.0 0.0 0.0 0.0 0.0 0.0 0.0 0.0 0.0 0.0 0.0 0.0 0.0 0.0 0.0 0.0 0.0
0.0 0.0 0.0 0.0 0.0 0.0 0.0 0.0 0.0 0.0 0.0 0.0 0.0 0.0 0.0 0.0 0.0 0.0 0.0 0.0 0.0 2.7 6.3 1.0 0.0 0.0 0.0 0.0 0.0 0.0 0.0 0.0 0.0 0.0 0.0 0.0 0.0 0.0 0.0 0.0 0.0 0.0 0.0 0.0 0.0 0.0 0.0 0.0 0.0 0.0 0.0 0.0 0.0 0.0
0.0 0.0 0.0 0.0 0.0 0.0 0.0 0.0 0.0 0.0 0.0 0.0 0.0 0.0 0.0 0.0 0.0 0.0 1.7 0.0 0.0 0.0 5.5 5.0 0.0 0.0 0.0 0.0 0.0 0.0 0.0 0.0 0.0 0.0 0.0 0.0 0.0 0.0 2.0 1.5 0.0 0.0 0.0 0.0 0.0 0.0 0.0 0.0 0.0 0.0 0.0 0.0 0.0 0.0
0.0 0.0 0.0 0.0 0.0 0.0 0.0 0.0 0.0 0.0 0.0 0.0 0.0 0.0 0.0 0.0 0.0 1.3 2.3 0.0 0.0 0.0 4.8 5.4 0.0 0.0 0.0 0.0 0.0 0.0 0.0 0.0 0.0 0.0 0.0 0.0 0.0 0.0 0.0 2.9 0.0 0.0 0.0 0.0 0.0 0.0 0.0 0.0 0.0 0.0 0.0 0.0 0.0 0.0
0.0 0.0 0.0 0.0 0.0 0.0 0.0 0.0 0.0 0.0 0.0 0.0 0.0 0.0 0.0 0.0 0.0 0.0 0.0 0.0 0.0 1.7 0.5 5.9 1.4 0.0 0.0 0.0 0.0 0.0 0.0 0.0 0.0 0.0 0.0 0.0 0.0 0.0 1.7 0.0 0.0 0.0 0.0 0.0 0.0 0.0 0.0 0.0 0.0 0.0 0.0 0.0 0.0 0.0
0.0 0.0 0.0 0.0 0.0 0.0 0.0 0.0 0.0 0.0 0.0 0.0 0.0 0.0 0.0 0.0 0.0 0.0 0.0 0.0 0.0 0.3 6.0 1.0 4.5 4.9 0.0 0.0 0.0 0.0 0.0 0.0 0.0 0.0 0.0 0.0 0.0 2.7 0.0 0.0 0.0 0.0 0.0 0.0 0.0 0.0 0.0 0.0 0.0 0.0 0.0 0.0 0.0 0.0
0.0 0.0 0.0 0.0 0.0 0.0 0.0 0.0 0.0 0.0 0.0 0.0 0.0 0.0 2.9 0.0 0.0 0.0 0.0 3.1 4.3 1.3 0.8 1.6 0.0 0.4 0.0 0.0 0.0 0.0 0.0 0.0 3.9 0.0 0.0 1.1 0.6 0.0 0.0 0.0 0.0 0.0 0.0 0.0 0.0 0.0 0.0 0.0 0.0 0.0 0.0 0.0 0.0 0.0
0.0 0.0 0.0 0.0 0.0 0.0 0.0 0.0 0.0 0.0 0.0 0.0 2.1 4.6 0.0 0.0 0.0 1.2 6.8 7.2 4.5 5.3 0.0 0.0 0.0 0.0 0.0 0.0 0.0 0.0 2.4 3.7 6.0 3.3 2.0 2.5 1.7 0.0 0.0 0.0 0.0 0.0 0.0 0.0 0.0 0.0 0.0 0.0 0.0 0.0 0.0 0.0 0.0 0.0
0.0 0.0 0.0 0.0 0.0 0.0 0.0 0.0 0.0 0.0 0.0 0.0 0.2 0.0 0.0 3.7 6.3 8.1 7.6 6.2 5.5 5.5 0.0 0.0 0.0 0.0 0.0 0.0 0.0 0.0 4.7 4.3 8.1 0.0 5.1 7.1 1.3 0.0 0.0 0.0 0.0 0.0 0.0 0.0 0.0 0.0 0.0 0.0 0.0 0.0 0.0 0.0 0.0 0.0
0.0 0.0 0.0 0.0 0.0 0.0 0.0 0.0 0.0 0.0 0.0 0.0 1.3 8.2 7.3 5.8 10.5 10.3 12.5 7.8 7.3 5.5 5.0 3.4 3.3 0.0 0.0 0.0 0.0 2.0 6.4 6.5 0.8 6.5 7.2 3.0 3.2 0.5 0.8 0.0 0.0 0.0 0.0 0.0 0.0 0.0 0.0 0.0 0.0 0.0 0.0 0.0 0.0 0.0
0.0 0.0 0.0 0.0 0.0 0.0 0.0 0.0 0.0 0.0 0.0 6.2 9.9 13.4 10.5 9.7 8.7 9.5 8.9 8.2 5.7 5.3 4.3 2.4 2.6 1.6 0.6 3.8 3.6 5.4 2.3 5.3 9.4 11.2 10.3 6.1 5.1 3.3 0.5 0.1 0.5 0.0 0.0 0.0 0.0 0.0 0.0 0.0 0.0 0.0 0.0 0.0 0.0 0.0
0.0 0.0 0.0 0.0 0.0 0.0 0.0 0.0 0.0 0.0 1.5 8.8 9.9 12.7 11.0 7.2 7.0 7.1 6.9 6.3 4.9 2.6 3.4 3.4 3.4 0.7 5.4 5.0 4.3 6.2 8.4 10.6 7.3 10.6 6.7 6.5 5.5 4.8 3.2 2.1 1.8 1.7 0.6 0.0 0.0 0.0 0.0 0.0 0.0 0.0 0.0 0.0 0.1 0.5
0.0 0.0 0.0 0.0 0.0 0.0 0.0 0.0 0.0 0.0 3.0 8.6 9.5 12.1 7.5 9.9 9.1 7.9 7.5 7.7 2.9 2.8 3.6 4.9 6.0 6.6 6.4 5.7 8.4 8.8 9.3 11.0 8.1 8.5 8.3 7.1 5.3 4.0 3.2 2.8 1.9 0.8 1.0 0.7 0.0 0.2 0.0 0.0 0.0 0.0 0.0 0.3 1.2 0.9
0.0 0.0 0.0 0.0 0.0 0.0 0.0 1.3 2.8 7.2 8.5 10.3 11.3 5.9 7.3 9.0 9.3 9.2 6.5 2.9 0.0 5.2 7.7 7.3 7.9 7.0 7.1 8.6 9.7 6.7 8.0 10.3 9.6 9.0 9.0 6.7 6.0 4.5 3.8 3.7 3.5 2.2 1.1 1.1 1.7 1.1 0.6 0.3 0.9 1.6 1.9 1.9 2.9 2.0
0.0 0.0 0.0 0.0 0.0 0.0 2.3 5.1 7.2 8.7 12.8 10.1 11.7 8.0 4.7 4.0 8.3 9.0 3.4 4.1 5.2 8.6 7.6 9.2 9.0 9.7 9.3 9.9 9.0 10.4 10.0 9.5 8.7 9.9 8.6 8.0 6.4 6.4 5.9 4.4 4.0 3.5 3.5 2.9 2.7 2.9 3.1 3.0 3.0 2.5 2.8 3.2 3.3 3.8
0.0 0.0 0.0 0.0 0.0 3.2 8.4 8.7 8.7 14.0 13.0 9.1 7.8 6.0 7.3 6.4 7.7 7.8 7.4 5.7 2.8 4.3 8.4 8.2 10.5 10.3 9.8 10.7 11.0 11.8 11.4 10.6 10.3 9.3 9.2 6.6 4.2 7.0 6.7 6.3 5.1 4.2 4.3 4.6 3.7 4.5 3.9 4.2 3.7 4.8 4.6 4.4 3.9 4.2
0.0 0.0 0.0 0.0 0.0 7.0 12.1 12.3 9.0 12.8 14.5 13.3 8.8 11.8 12.4 12.9 11.5 12.2 12.3 10.3 7.1 12.6 12.6 13.2 10.0 9.3 9.5 9.8 10.1 10.5 11.5 10.7 9.7 10.5 10.2 7.5 6.5 6.2 7.6 6.4 6.4 6.2 5.0 6.0 5.7 5.6 5.6 4.5 4.9 6.0 7.1 6.3 5.4 5.1
0.0 0.0 0.0 2.8 6.2 6.5 10.2 12.4 13.2 12.9 12.9 14.1 11.6 12.9 14.1 13.3 12.8 12.7 12.6 8.7 12.0 12.3 12.3 9.9 9.5 10.4 8.8 10.1 9.9 10.7 11.2 11.8 12.9 12.2 12.3 11.2 8.3 6.5 5.9 6.5 7.8 8.3 8.0 7.1 7.1 7.3 7.3 7.2 6.9 7.3 6.1 7.4 8.0 6.5
4.2 1.8 7.5 6.4 9.7 12.3 12.6 10.9 13.1 12.8 14.3 14.7 14.9 15.0 14.7 14.5 14.0 13.4 13.3 14.1 13.3 12.0 11.4 11.3 10.5 11.3 12.0 11.8 11.7 11.8 11.9 11.7 12.0 12.1 8.5 8.9 10.8 10.2 9.1 7.8 9.5 9.4 10.0 9.3 8.4 9.3 8.6 8.5 8.9 8.4 9.0 9.1 8.8 8.6
3.9 6.3 9.8 9.7 13.1 13.7 14.9 12.7 15.1 14.7 15.5 16.1 15.9 15.3 15.4 15.1 15.0 14.3 14.9 15.0 13.2 8.0 9.3 11.4 12.1 12.3 12.1 12.2 12.0 12.2 12.4 12.7 12.6 12.7 12.6 12.8 12.5 10.4 9.3 8.4 9.7 12.0 11.3 10.7 8.4 8.2 10.4 8.7 7.5 10.3 9.8 10.6 10.4 9.3
3.0 10.0 13.0 13.8 13.6 15.1 14.8 16.3 14.6 15.8 16.9 16.9 16.3 16.0 16.0 15.9 15.9 16.2 15.8 13.8 11.8 12.3 12.2 12.2 12.6 12.6 12.3 11.9 11.1 11.8 12.1 12.9 13.7 13.8 13.8 13.5 14.8 13.9 12.9 10.7 10.8 12.0 10.0 10.7 10.5 10.8 11.4 10.8 8.6 10.3 11.2 12.6 11.9 9.6
12.8 14.7 14.2 17.1 16.7 17.2 17.6 17.9 17.8 17.6 16.9 17.2 17.2 16.6 16.7 16.8 17.0 16.8 15.6 14.7 13.1 12.7 12.1 12.2 12.3 12.3 12.2 12.0 12.1 12.7 12.6 13.5 14.6 14.3 14.0 14.6 15.0 15.5 15.1 12.7 12.3 11.3 10.0 12.7 13.1 13.2 12.9 11.0 11.5 12.3 12.6 13.3 12.7 12.2
15.2 15.6 16.7 15.9 17.3 17.4 16.8 17.5 17.8 17.4 17.2 17.1 17.1 17.0 17.5 17.2 17.3 16.3 15.2 13.4 12.4 10.7 10.3 9.6 9.8 11.6 12.3 12.5 13.3 14.0 14.2 13.4 15.2 16.3 15.2 16.0 16.4 16.2 15.6 15.2 14.7 13.4 11.6 11.0 12.4 13.4 13.5 12.2 12.7 13.2 13.2 12.8 11.5 13.0
15.8 17.1 15.4 12.0 13.5 14.5 16.1 16.3 15.8 16.9 17.1 17.1 17.2 17.6 17.4 17.3 17.0 14.6 12.6 11.1 9.6 8.8 9.5 10.8 12.0 12.5 12.7 13.7 14.3 14.7 14.7 15.2 17.1 17.1 16.0 16.3 16.5 15.9 16.8 17.1 16.1 14.7 12.0 12.3 11.7 12.3 13.4 13.7 13.3 13.0 13.4 13.1 13.7 13.6
13.7 14.6 16.5 16.7 16.7 16.6 16.6 16.7 16.3 16.2 15.9 15.9 16.6 17.2 16.8 16.8 14.5 11.8 10.7 9.4 9.3 10.5 11.7 12.5 13.2 13.7 14.6 15.3 16.1 16.6 16.9 17.7 17.7 17.9 18.0 17.6 17.0 16.8 16.5 15.5 14.5 12.1 11.1 12.4 11.8 11.7 12.6 13.4 13.6 13.5 13.8 14.9 14.2 14.5
15.2 14.4 15.2 17.8 17.4 16.5 15.9 15.3 14.7 15.0 14.8 15.4 15.6 15.3 14.7 14.0 12.6 11.4 10.9 11.5 12.1 12.7 13.3 14.0 14.4 15.3 15.6 16.2 16.8 17.4 18.0 18.5 19.0 19.2 19.2 18.6 18.5 17.7 14.2 15.3 14.2 12.9 11.6 12.2 7.9 10.3 12.7 13.1 13.5 13.9 14.8 15.5 14.7 14.7
15.8 13.4 16.7 17.0 16.5 15.8 15.2 15.5 15.4 15.0 15.0 15.3 15.4 14.9 14.5 13.6 12.4 12.4 12.3 12.4 12.7 13.4 14.5 15.1 15.4 16.0 16.6 16.9 16.8 17.2 18.2 18.9 19.2 19.7 20.4 19.9 19.3 15.9 14.9 14.9 14.7 13.6 12.9 12.4 12.2 12.2 9.1 11.8 12.3 15.0 16.5 16.8 15.9 16.7
15.1 15.9 16.6 16.6 16.7 15.9 15.4 15.5 15.8 16.0 16.1 15.9 15.8 16.1 15.7 15.4 13.4 12.0 11.5 12.1 12.9 13.7 14.4 15.3 16.2 17.1 17.2 17.3 17.5 17.6 17.6 18.8 17.9 18.0 18.2 17.2 16.7 16.8 16.5 15.8 14.2 13.7 12.8 13.0 13.3 13.2 13.3 16.1 17.1 17.6 17.8 17.1 17.0 17.2
17.0 16.9 16.8 16.9 16.8 16.1 15.9 16.5 17.2 17.3 16.8 16.6 16.6 16.4 16.6 16.7 16.1 13.6 13.3 13.7 14.1 14.7 15.2 16.0 16.8 17.5 17.6 17.9 18.8 18.9 16.1 17.5 18.0 18.6 19.0 18.6 17.9 16.6 15.2 14.7 13.7 13.1 13.2 13.7 15.2 16.7 17.2 17.5 17.7 18.2 18.0 17.2 17.7 17.8
18.3 18.2 18.3 17.4 17.1 17.3 17.9 17.8 17.4 18.0 18.3 17.9 17.6 17.5 17.8 17.8 16.9 15.1 14.5 14.2 14.9 15.6 16.5 17.1 17.5 17.7 18.0 18.4 18.1 17.3 14.7 16.4 16.7 13.4 12.6 12.5 12.3 13.5 15.2 14.4 14.4 15.0 15.7 16.5 16.8 17.1 17.5 18.0 18.5 18.3 17.2 17.9 18.0 17.9